DW9657 Weather Reports


time (UTC)temp
F
wind
direction
speed
knots
gust
knots
rain 1hr
in
rain 24hr
in
rain mn
in
humidity
%
barometer
mb
20260504110328 50 225 2.6 7.8 0.00 0.00 0.00 86 1006.4
20260504100327 50 227 3.5 7.8 0.00 0.00 0.00 85 1006.0
20260504081832 50 220 3.5 7.8 0.00 0.00 0.00 84 1006.5
20260504081350 50 235 3.5 7.0 0.00 0.00 0.00 84 1006.6
20260504080832 50 222 3.5 7.0 0.00 0.00 0.00 84 1006.7
20260504080354 50 220 3.5 6.1 0.00 0.00 0.00 84 1006.7
20260504070327 50 235 2.6 7.0 0.00 0.00 0.00 82 1007.4
20260504050333 50 227 1.7 5.2 0.00 0.00 0.00 82 1009.2
20260504045828 50 239 2.6 5.2 0.00 0.00 0.00 82 1009.1
20260504045332 50 243 1.7 4.3 0.00 0.00 0.00 82 1009.2
20260504044827 50 227 1.7 4.3 0.00 0.00 0.00 82 1009.3
20260504044330 50 237 1.7 4.3 0.00 0.00 0.00 82 1009.3
20260504043827 51 237 1.7 4.3 0.00 0.00 0.00 82 1009.4
20260504043329 51 233 1.7 4.3 0.00 0.00 0.00 82 1009.4
20260504042827 51 232 0.9 4.3 0.00 0.00 0.00 81 1009.4
20260504042331 51 233 0.9 3.5 0.00 0.00 0.00 81 1009.5
20260504041846 51 227 1.7 2.6 0.00 0.00 0.00 82 1009.6
20260504041330 51 188 1.7 3.5 0.00 0.00 0.00 81 1009.6
20260504040856 51 232 1.7 3.5 0.00 0.00 0.00 82 1009.7
20260504040352 51 222 0.9 2.6 0.00 0.00 0.00 82 1009.8
20260504035834 51 235 0.9 2.6 0.00 0.00 0.00 82 1009.9
20260504035332 50 216 0.9 4.3 0.00 0.00 0.00 82 1009.8
20260504034834 50 210 0.9 4.3 0.00 0.00 0.00 82 1010.0
20260504034332 50 227 0.9 2.6 0.00 0.00 0.00 83 1010.1
20260504033835 50 158 0.9 2.6 0.00 0.00 0.00 83 1010.1
20260504033331 50 187 0.9 2.6 0.00 0.00 0.00 83 1010.2
20260504032835 50 227 0.9 2.6 0.00 0.00 0.00 83 1010.2
20260504032330 50 190 0.0 2.6 0.00 0.00 0.00 83 1010.2
20260504031855 50 181 0.9 2.6 0.00 0.00 0.00 83 1010.2
20260504031356 50 205 0.9 1.7 0.00 0.00 0.00 83 1010.3
20260504030831 50 217 0.0 3.5 0.00 0.00 0.00 83 1010.3
20260504030335 50 175 0.9 4.3 0.00 0.00 0.00 83 1010.4
20260504025830 50 146 0.9 4.3 0.00 0.00 0.00 83 1010.3
20260504025353 51 236 0.9 3.5 0.00 0.00 0.00 83 1010.4
20260504024829 51 216 0.9 3.5 0.00 0.00 0.00 83 1010.5
20260504024353 51 231 0.9 3.5 0.00 0.00 0.00 83 1010.5
20260504023837 51 227 0.9 2.6 0.00 0.00 0.00 82 1010.5
20260504023331 51 189 0.9 4.3 0.00 0.00 0.00 82 1010.7
20260504022829 51 226 1.7 4.3 0.00 0.00 0.00 82 1010.7
20260504022334 51 227 0.0 2.6 0.00 0.00 0.00 82 1010.7
20260504021856 51 223 0.9 3.5 0.00 0.00 0.00 81 1010.7
20260504021331 51 228 0.9 3.5 0.00 0.00 0.00 81 1010.6
20260504020855 51 210 0.9 3.5 0.00 0.00 0.00 81 1010.6
20260504020400 51 227 2.6 4.3 0.00 0.00 0.00 80 1010.6
20260504015900 52 229 2.6 4.3 0.00 0.00 0.00 80 1010.6
20260504015351 52 220 2.6 4.3 0.00 0.00 0.00 80 1010.6
20260504014834 52 228 2.6 4.3 0.00 0.00 0.00 79 1010.6
20260504014331 52 224 1.7 4.3 0.00 0.00 0.00 79 1010.6
20260504013835 52 227 1.7 4.3 0.00 0.00 0.00 79 1010.6
20260504013317 52 225 1.7 5.2 0.00 0.00 0.00 79 1010.5
20260504012835 52 224 2.6 5.2 0.00 0.00 0.00 78 1010.6
20260504012331 52 223 2.6 7.8 0.00 0.00 0.00 77 1010.6
20260504011854 52 216 4.3 8.7 0.00 0.00 0.00 76 1010.7
20260504011334 53 210 4.3 8.7 0.00 0.00 0.00 76 1010.7
20260504010830 53 220 4.3 8.7 0.00 0.00 0.00 76 1010.7
20260504010333 53 218 5.2 12.2 0.00 0.00 0.00 75 1010.7
20260504005829 53 218 6.1 12.2 0.00 0.00 0.00 75 1010.8
20260504005332 53 210 6.1 11.3 0.00 0.00 0.00 75 1010.8
20260504004836 53 222 5.2 13.0 0.00 0.00 0.00 75 1010.8
20260504004333 53 224 7.0 13.0 0.00 0.00 0.00 74 1010.8
20260504003855 54 220 6.1 11.3 0.00 0.00 0.00 74 1010.8
20260504003332 54 235 7.8 12.2 0.00 0.00 0.00 72 1010.8
20260504002835 54 229 7.8 13.9 0.00 0.00 0.00 71 1010.7
20260504002332 54 241 9.6 15.6 0.00 0.00 0.00 70 1010.7
20260504001836 54 227 9.6 15.6 0.00 0.00 0.00 71 1010.6
20260504001333 54 227 8.7 13.9 0.00 0.00 0.00 71 1010.7
20260504000835 54 222 9.6 13.9 0.00 0.00 0.00 71 1010.6
20260504000331 55 222 7.8 16.5 0.00 0.00 0.00 71 1010.5
20260503235855 55 235 9.6 16.5 0.00 0.00 0.00 70 1010.4
20260503235332 55 235 9.6 13.9 0.00 0.00 0.00 69 1010.4
20260503234837 56 210 8.7 13.9 0.00 0.00 0.00 69 1010.3
20260503234359 56 222 8.7 13.9 0.00 0.00 0.00 68 1010.1
20260503233834 56 231 9.6 13.0 0.00 0.00 0.00 67 1010.1
20260503233319 56 216 8.7 13.0 0.00 0.00 0.00 68 1010.1
20260503232834 56 219 7.0 10.4 0.00 0.00 0.00 68 1010.0
20260503232339 57 216 7.0 10.4 0.00 0.00 0.00 67 1010.0
20260503231836 57 224 7.0 11.3 0.00 0.00 0.00 68 1010.0
20260503231339 57 217 6.1 9.6 0.00 0.00 0.00 68 1010.0
20260503230836 57 210 6.1 10.4 0.00 0.00 0.00 68 1010.0
20260503230340 57 214 7.0 10.4 0.00 0.00 0.00 68 1010.1
20260503225837 57 222 6.1 10.4 0.00 0.00 0.00 68 1010.0
20260503225333 57 231 5.2 13.0 0.00 0.00 0.00 67 1010.1
20260503224835 57 231 7.0 13.0 0.00 0.00 0.00 66 1010.1
20260503224331 57 210 7.8 11.3 0.00 0.00 0.00 66 1010.1
20260503223835 57 210 7.0 11.3 0.00 0.00 0.00 66 1010.2
20260503223338 57 210 7.0 10.4 0.00 0.00 0.00 67 1010.2
20260503222833 57 227 7.0 9.6 0.00 0.00 0.00 67 1010.2
20260503222330 57 221 7.0 9.6 0.00 0.00 0.00 66 1010.2
20260503221834 57 220 7.0 10.4 0.00 0.00 0.00 66 1010.3
20260503221331 57 220 5.2 10.4 0.00 0.00 0.00 67 1010.3
20260503220834 57 221 6.1 8.7 0.00 0.00 0.00 66 1010.3
20260503220331 57 222 6.1 8.7 0.00 0.00 0.00 66 1010.4
20260503215834 58 220 6.1 8.7 0.00 0.00 0.00 65 1010.4
20260503215331 58 228 6.1 10.4 0.00 0.00 0.00 64 1010.4
20260503214835 58 214 7.0 10.4 0.00 0.00 0.00 64 1010.3
20260503214331 58 205 6.1 8.7 0.00 0.00 0.00 64 1010.3
20260503213834 58 210 6.1 11.3 0.00 0.00 0.00 65 1010.2
20260503213357 58 215 7.0 11.3 0.00 0.00 0.00 64 1010.3
20260503212901 58 216 6.1 10.4 0.00 0.00 0.00 64 1010.4
20260503212336 58 229 6.1 11.3 0.00 0.00 0.00 63 1010.4
20260503211856 58 218 7.0 11.3 0.00 0.00 0.00 62 1010.5
20260503211330 59 205 6.1 9.6 0.00 0.00 0.00 62 1010.4
20260503210834 59 224 7.0 11.3 0.00 0.00 0.00 62 1010.4
20260503210332 59 218 7.0 12.2 0.00 0.00 0.00 62 1010.4
20260503205835 59 220 7.0 12.2 0.00 0.00 0.00 62 1010.4
20260503205332 59 221 6.1 11.3 0.00 0.00 0.00 62 1010.5
20260503204828 59 218 7.8 11.3 0.00 0.00 0.00 59 1010.5
20260503204352 59 210 5.2 9.6 0.00 0.00 0.00 63 1010.5
20260503203834 59 218 5.2 10.4 0.00 0.00 0.00 62 1010.7
20260503203330 59 214 7.8 11.3 0.00 0.00 0.00 61 1010.7
20260503202834 59 205 6.1 11.3 0.00 0.00 0.00 62 1010.7
20260503202331 59 224 7.0 8.7 0.00 0.00 0.00 63 1010.7
20260503201827 59 222 6.1 10.4 0.00 0.00 0.00 63 1010.9
20260503201331 59 229 6.1 11.3 0.00 0.00 0.00 63 1010.8
20260503200833 59 220 6.1 11.3 0.00 0.00 0.00 64 1011.0
20260503200330 58 216 6.1 10.4 0.00 0.00 0.00 65 1011.1
20260503195833 58 214 6.1 10.4 0.00 0.00 0.00 64 1011.1
20260503195349 58 222 7.0 9.6 0.00 0.00 0.00 64 1011.2
20260503194852 59 218 5.2 9.6 0.00 0.00 0.00 63 1011.2
20260503194333 59 219 6.1 9.6 0.00 0.00 0.00 63 1011.3
20260503193832 59 219 6.1 9.6 0.00 0.00 0.00 64 1011.3
20260503193335 59 210 5.2 11.3 0.00 0.00 0.00 62 1011.4
20260503192831 59 214 6.1 11.3 0.00 0.00 0.00 61 1011.3
20260503192335 59 231 7.0 11.3 0.00 0.00 0.00 60 1011.5
20260503191833 59 232 7.0 13.9 0.00 0.00 0.00 61 1011.6
20260503191335 59 216 7.0 13.9 0.00 0.00 0.00 59 1011.7
20260503190831 59 233 7.0 13.0 0.00 0.00 0.00 60 1011.7
20260503190334 59 214 7.0 13.0 0.00 0.00 0.00 62 1011.8
20260503185831 59 218 7.0 11.3 0.00 0.00 0.00 61 1011.9
20260503185336 59 217 7.0 10.4 0.00 0.00 0.00 61 1012.0
20260503184834 59 229 6.1 11.3 0.00 0.00 0.00 62 1012.1
20260503184338 59 210 6.1 10.4 0.00 0.00 0.00 60 1012.1
20260503183833 59 218 7.0 10.4 0.00 0.00 0.00 60 1012.1
20260503183330 59 215 7.0 11.3 0.00 0.00 0.00 61 1012.2
20260503182834 59 214 7.0 11.3 0.00 0.00 0.00 61 1012.3
20260503182331 58 222 5.2 9.6 0.00 0.00 0.00 62 1012.4
20260503181835 58 219 5.2 10.4 0.00 0.00 0.00 64 1012.5
20260503181333 58 218 6.1 14.8 0.00 0.00 0.00 60 1012.6
20260503180836 58 222 7.8 14.8 0.00 0.00 0.00 57 1012.7
20260503180333 58 214 8.7 11.3 0.00 0.00 0.00 57 1012.8
20260503175834 58 232 7.0 13.0 0.00 0.00 0.00 60 1012.8
20260503175351 58 220 8.7 13.0 0.00 0.00 0.00 58 1012.9
20260503174833 57 210 7.8 11.3 0.00 0.00 0.00 60 1012.9
20260503174335 57 234 7.0 12.2 0.00 0.00 0.00 61 1013.0
20260503173851 57 222 7.0 12.2 0.00 0.00 0.00 59 1013.0
20260503173334 57 222 6.1 12.2 0.00 0.00 0.00 61 1013.0
20260503172831 57 210 7.8 11.3 0.00 0.00 0.00 60 1013.1
20260503172336 57 214 6.1 12.2 0.00 0.00 0.00 62 1013.1
20260503171833 57 241 7.8 12.2 0.00 0.00 0.00 62 1013.3
20260503171337 56 218 6.1 13.9 0.00 0.00 0.00 64 1013.2
20260503170832 56 218 7.8 13.9 0.00 0.00 0.00 64 1013.4
20260503170336 56 223 6.1 11.3 0.00 0.00 0.00 63 1013.4
20260503150847 52 214 7.0 10.4 0.00 0.00 0.00 71 1014.2
20260503150349 51 229 5.2 11.3 0.00 0.00 0.00 72 1014.4
20260503131333 47 224 7.0 13.0 0.00 0.00 0.00 70 1014.7
20260503130827 46 224 6.1 11.3 0.00 0.00 0.00 71 1014.7
20260503130351 46 230 7.0 13.0 0.00 0.00 0.00 70 1014.7